TimeEST,TemperatureF,Dew PointF,Humidity,Sea Level PressureIn,VisibilityMPH,Wind Direction,Wind SpeedMPH,Gust SpeedMPH,PrecipitationIn,Events,Conditions,WindDirDegrees,DateUTC
12:53 AM,68.0,64.0,87,30.10,10.0,NNE,15.0,-,N/A,,Overcast,30,2014-02-07 05:53:00
1:53 AM,66.0,61.0,84,30.10,10.0,NE,13.8,-,N/A,,Overcast,40,2014-02-07 06:53:00
2:53 AM,64.0,57.9,80,30.09,9.0,NE,13.8,-,N/A,,Overcast,40,2014-02-07 07:53:00
3:39 AM,61.0,55.9,83,30.08,8.0,NE,12.7,-,N/A,,Overcast,40,2014-02-07 08:39:00
3:53 AM,61.0,55.9,83,30.09,9.0,NE,12.7,-,N/A,,Overcast,50,2014-02-07 08:53:00
4:53 AM,59.0,55.9,90,30.10,8.0,NE,10.4,-,N/A,,Overcast,50,2014-02-07 09:53:00
5:53 AM,57.9,55.9,93,30.11,7.0,NE,9.2,-,N/A,,Overcast,50,2014-02-07 10:53:00
6:14 AM,57.9,55.9,93,30.11,7.0,ENE,8.1,-,N/A,,Overcast,60,2014-02-07 11:14:00
6:53 AM,57.9,55.9,93,30.13,7.0,NE,8.1,-,N/A,,Overcast,50,2014-02-07 11:53:00
7:46 AM,57.9,55.9,93,30.14,2.5,NE,9.2,-,N/A,,Overcast,50,2014-02-07 12:46:00
7:53 AM,57.9,55.9,93,30.14,2.5,ENE,9.2,-,N/A,,Overcast,60,2014-02-07 12:53:00
8:00 AM,57.9,55.9,93,30.14,4.0,NE,9.2,-,N/A,,Overcast,50,2014-02-07 13:00:00
8:32 AM,60.1,57.0,90,30.14,8.0,ENE,9.2,-,N/A,,Overcast,60,2014-02-07 13:32:00
8:53 AM,61.0,57.9,90,30.16,9.0,East,6.9,-,N/A,,Overcast,100,2014-02-07 13:53:00
9:53 AM,64.9,59.0,81,30.16,10.0,NE,10.4,-,N/A,,Overcast,50,2014-02-07 14:53:00
10:15 AM,66.9,60.1,79,30.15,10.0,East,6.9,-,N/A,,Scattered Clouds,80,2014-02-07 15:15:00
10:53 AM,69.1,61.0,75,30.16,10.0,ESE,6.9,-,N/A,,Clear,110,2014-02-07 15:53:00
11:53 AM,73.0,63.0,71,30.14,10.0,ENE,6.9,-,N/A,,Clear,70,2014-02-07 16:53:00
12:53 PM,79.0,64.0,60,30.11,10.0,NE,4.6,-,N/A,,Clear,40,2014-02-07 17:53:00
1:53 PM,79.0,63.0,58,30.09,10.0,South,4.6,-,N/A,,Scattered Clouds,170,2014-02-07 18:53:00
2:53 PM,79.0,63.0,58,30.07,10.0,Calm,Calm,-,N/A,,Mostly Cloudy,0,2014-02-07 19:53:00
3:53 PM,82.9,64.0,53,30.06,10.0,Variable,4.6,-,N/A,,Mostly Cloudy,0,2014-02-07 20:53:00
4:53 PM,81.0,64.0,56,30.06,10.0,WNW,5.8,-,N/A,,Overcast,290,2014-02-07 21:53:00
5:53 PM,78.1,64.9,64,30.07,10.0,West,9.2,-,N/A,,Mostly Cloudy,280,2014-02-07 22:53:00
6:53 PM,73.9,64.0,71,30.08,10.0,NW,6.9,-,N/A,,Clear,310,2014-02-07 23:53:00
7:53 PM,71.1,62.1,73,30.10,10.0,NNE,11.5,-,N/A,,Mostly Cloudy,30,2014-02-08 00:53:00
8:53 PM,68.0,61.0,78,30.12,10.0,NE,10.4,-,N/A,,Clear,40,2014-02-08 01:53:00
9:53 PM,66.9,61.0,81,30.12,10.0,ENE,6.9,-,N/A,,Clear,60,2014-02-08 02:53:00
10:53 PM,66.0,61.0,84,30.13,10.0,ENE,8.1,-,N/A,,Clear,70,2014-02-08 03:53:00
11:14 PM,66.0,61.0,84,30.12,10.0,NE,9.2,-,N/A,,Mostly Cloudy,50,2014-02-08 04:14:00
11:44 PM,66.0,62.1,87,30.12,10.0,ENE,10.4,-,N/A,,Overcast,60,2014-02-08 04:44:00
11:53 PM,66.0,62.1,87,30.12,10.0,ENE,8.1,-,N/A,,Overcast,60,2014-02-08 04:53:00